Location: Unspecified
(0.0000°N, 0.0000°E)
Time: 16:41:40
(UTC+00:00)

Vanguard 3 - Pass Details

Date: 03 February 2023
Orbit: 509 x 3249 km, 33.3° (Epoch: 20 March)

Event Time Altitude Azimuth Distance (km) Brightness Sun altitude
Rises 14:47:27 0° 235° (SW) 2,631 10.5 48.7°
Reaches altitude 10° 14:49:22 10° 236° (SW) 1,815 9.9 48.3°
Maximum altitude 14:53:19 87° 323° (NW) 668 7.7 47.4°
Drops below altitude 10° 14:59:11 10° 54° (NE) 2,661 9.5 46.0°
Sets 15:02:33 0° 54° (NE) 4,007 10.3 45.3°
